Weather History for Watertown, NY

Change the Weather History Date:

Thursday, February 7, 2013

  Actual Average Record
Temperature  
Mean Temperature 10 °F 20 °F  
Max Temperature 18 °F 30 °F 50 °F (1965)
Min Temperature 1 °F 9 °F -28 °F (1993)
Degree Days  
Heating Degree Days 55 46  
Month to date heating degree days 368 322  
Since 1 July heating degree days 4013 4533  
Cooling Degree Days 0 0  
Month to date cooling degree days 0 0  
Year to date cooling degree days 0 0  
Moisture  
Dew Point 0 °F    
Average Humidity 66    
Maximum Humidity 79    
Minimum Humidity 53    
Precipitation  
Precipitation T in 0.08 in 0.65 in (1951)
Month to date precipitation 0.26 0.55  
Year to date precipitation 2.46 3.21  
Sea Level Pressure  
Sea Level Pressure 30.43 in    
Wind  
Wind Speed 11 mph (NE)    
Max Wind Speed 18 mph    
Max Gust Speed 22 mph    
Visibility 9 miles    
Events Snow    
T = Trace of Precipitation, MM = Missing Value Source: NWS Daily Summary

Daily Weather History Graph

Daily Weather History Graph

Search for Another Location

Airport:

Trip Planner

Search our weather history database for the weather conditions in past years. The results will help you decide how hot, cold, wet, or windy it might be!

Date:

Astronomy

Feb. 07, 2013 Rise Set
Actual Time 7:13 AM EST 5:23 PM EST
Civil Twilight 6:43 AM EST 5:53 PM EST
Nautical Twilight 6:09 AM EST 6:27 PM EST
Astronomical Twilight 5:36 AM EST 7:01 PM EST
Moon 4:54 AM EST (2/7) 2:42 PM EST (2/7)
Length of Visible Light 11h 09m
Length of Day
10h 09m
Waning Crescent, 9% of the Moon is Illuminated
Feb 7
Waning Crescent
Feb 10
New
Feb 17
First Quarter
Feb 25
Full
Mar 4
Last Quarter

Hourly Weather History & Observations

Time (EST) Temp. Windchill Dew Point Humidity Pressure Visibility Wind Dir Wind Speed Gust Speed Precip Events Conditions
12:56 AM 3.9 °F - -2.9 °F 73% 30.43 in 10.0 mi Calm Calm - N/A   Overcast
1:56 AM 3.0 °F - -2.0 °F 80% 30.43 in 10.0 mi Calm Calm - N/A   Overcast
2:56 AM 9.0 °F -3.2 °F -2.0 °F 61% 30.46 in 10.0 mi NNE 8.1 mph - N/A   Overcast
3:56 AM 9.0 °F -5.9 °F -2.9 °F 59% 30.47 in 10.0 mi NE 11.5 mph - N/A   Overcast
4:56 AM 8.1 °F -6.2 °F -4.0 °F 58% 30.48 in 10.0 mi NE 10.4 mph - N/A   Clear
5:56 AM 8.1 °F -6.2 °F -4.0 °F 58% 30.49 in 10.0 mi NE 10.4 mph - N/A   Overcast
6:56 AM 6.1 °F -9.5 °F -4.0 °F 63% 30.53 in 10.0 mi NE 11.5 mph - N/A   Mostly Cloudy
7:56 AM 5.0 °F -10.0 °F -4.0 °F 66% 30.54 in 10.0 mi NE 10.4 mph - N/A   Overcast
8:56 AM 6.1 °F -8.7 °F -2.9 °F 67% 30.57 in 10.0 mi ENE 10.4 mph - N/A   Overcast
9:56 AM 8.1 °F -4.3 °F -2.0 °F 64% 30.57 in 10.0 mi NE 8.1 mph - N/A   Overcast
10:56 AM 10.0 °F -2.9 °F -2.0 °F 58% 30.56 in 10.0 mi NNE 9.2 mph - N/A   Overcast
11:56 AM 12.0 °F -2.0 °F -0.0 °F 59% 30.53 in 10.0 mi NNE 11.5 mph - N/A   Overcast
12:56 PM 14.0 °F 0.5 °F 1.0 °F 56% 30.48 in 10.0 mi NNE 11.5 mph - N/A   Overcast
1:56 PM 15.1 °F 1.1 °F 1.9 °F 56% 30.45 in 10.0 mi NNE 12.7 mph - N/A   Overcast
2:56 PM 17.1 °F 3.0 °F 3.9 °F 56% 30.43 in 10.0 mi NE 13.8 mph - N/A   Overcast
3:56 PM 18.0 °F 3.1 °F 3.9 °F 54% 30.40 in 10.0 mi NE 16.1 mph - N/A   Overcast
4:56 PM 16.0 °F 2.3 °F 3.0 °F 57% 30.40 in 10.0 mi NE 12.7 mph - N/A   Overcast
5:56 PM 14.0 °F -1.4 °F 1.9 °F 59% 30.40 in 10.0 mi NE 15.0 mph - N/A   Overcast
6:56 PM 12.9 °F -3.4 °F 1.0 °F 59% 30.40 in 10.0 mi NE 16.1 mph - N/A   Overcast
7:56 PM 10.9 °F -5.9 °F 1.0 °F 64% 30.37 in 10.0 mi NE 16.1 mph - N/A   Overcast
8:56 PM 10.9 °F -6.5 °F 1.9 °F 67% 30.35 in 10.0 mi NE 17.3 mph - N/A   Overcast
9:56 PM 12.0 °F -2.0 °F 1.9 °F 64% 30.33 in 10.0 mi NE 11.5 mph - N/A   Overcast
10:56 PM 12.0 °F -2.7 °F 3.0 °F 67% 30.30 in 10.0 mi NE 12.7 mph - N/A   Overcast
11:51 PM 12.2 °F -1.8 °F 5.0 °F 73% 30.24 in 1.8 mi NE 11.5 mph - 0.00 in Snow Light Snow
11:56 PM 12.2 °F -1.8 °F 6.8 °F 79% 30.24 in 1.5 mi NE 11.5 mph - N/A Snow Light Snow